sat.trackr.live / text

‹ back to catalog

ONEWEB-0619

NORAD 55160 · 2023-004W

PAYLOAD ACTIVE UNKNOWN

§ Identity

Operator
Country
UK
Launch date
2023-01-10
Launch site
AFETR
Launch vehicle
Mass (kg)
RCS (m²)

Purposes: comms

External: N2YO · Heavens-Above · Gunter

§ Orbital elements

Epoch: 2026-09-20T04:06:34.614144Z

Period
109.29 min
Inclination
87.9210°
Eccentricity
0.0002271
Mean motion
13.17650964 rev/d
Perigee alt
1,192.0 km
Apogee alt
1,195.4 km
Semi-major
7,571.8 km
B*
1.7757e-4
RAAN
346.9959°
Arg perigee
101.3505°
Mean anomaly
258.7882°
Rev number
18,010

§ Raw data

ONEWEB-06191 55160U 23004W   26263.17123396  .00000082  00000+0  17757-3 0  99962 55160  87.9210 346.9959 0002271 101.3505 258.7882 13.17650964180100

JSON: /api/v1/satellites/55160 · /tle

For live sub-satellite position, see the globe view (requires WebGL).

§ Visibility from observer

Set your observer location to see the next 7 days of passes ≥ 10°. The values pass through the URL so the page stays shareable.

No JS? Fill the form by hand. The geolocation button needs JavaScript.